This is the latest recevied weather packets stored in our database for station/object GBTWP-2. If no packets are shown the sender has not sent any weather packets the latest 10 day(s).
| Time | Temp. | Humidity | Pressure | Rain* | Wind** | Luminosity | Snow |
|---|---|---|---|---|---|---|---|
| 1787437319 | 20° C | 86% | 1012.8 hPa | 0 mm | - | 58 W/m² | - |
| 1787437020 | 19.44° C | 87% | 1013 hPa | 0 mm | - | 206 W/m² | - |
| 1787436719 | 18.89° C | 89% | 1012.8 hPa | 0 mm | - | 97 W/m² | - |
| 1787436420 | 18.89° C | 89% | 1012.9 hPa | 0 mm | - | 87 W/m² | - |
| 1787436120 | 18.89° C | 89% | 1012.8 hPa | 0 mm | - | 101 W/m² | - |
| 1787435825 | 18.89° C | 89% | 1012.9 hPa | 0 mm | - | 104 W/m² | - |
| 1787435519 | 18.89° C | 90% | 1013 hPa | 0 mm | - | 116 W/m² | - |
| 1787435220 | 18.89° C | 91% | 1013.1 hPa | 0 mm | - | 162 W/m² | - |
| 1787434919 | 17.78° C | 92% | 1013.3 hPa | 0 mm | - | 164 W/m² | - |
| 1787434620 | 18.33° C | 94% | 1013.4 hPa | 0 mm | - | 168 W/m² | - |
| 1787434320 | 18.33° C | 94% | 1013.5 hPa | 0 mm | - | 172 W/m² | - |
| 1787434019 | 17.78° C | 94% | 1013.7 hPa | 0 mm | - | 133 W/m² | - |
| 1787433719 | 18.33° C | 95% | 1013.7 hPa | 0 mm | - | 126 W/m² | - |
| 1787433420 | 17.78° C | 95% | 1013.7 hPa | 0 mm | - | 131 W/m² | - |
| 1787433120 | 17.78° C | 95% | 1013.8 hPa | 0 mm | - | 116 W/m² | - |
| 1787432819 | 17.22° C | 95% | 1013.7 hPa | 0 mm | - | 94 W/m² | - |
| 1787432520 | 17.22° C | 95% | 1013.8 hPa | 0 mm | - | 64 W/m² | - |
| 1787432219 | 17.22° C | 95% | 1013.8 hPa | 0 mm | - | 34 W/m² | - |
| 1787431920 | 17.22° C | 95% | 1013.8 hPa | 0 mm | - | 21 W/m² | - |
| 1787431620 | 16.67° C | 95% | 1013.9 hPa | 0 mm | - | 16 W/m² | - |
| 1787431320 | 17.22° C | 95% | 1014 hPa | 0 mm | - | 14 W/m² | - |
| 1787431020 | 16.67° C | 95% | 1014.1 hPa | 0 mm | - | 13 W/m² | - |
| 1787430719 | 17.22° C | 94% | 1014.2 hPa | 0 mm | - | 12 W/m² | - |
| 1787430418 | 17.22° C | 94% | 1014 hPa | 1.27 mm | - | 12 W/m² | - |
| 1787430119 | 17.22° C | 93% | 1014 hPa | 3.05 mm | - | 12 W/m² | - |
* Rain latest hour (hover to see other rain measurements)
** Current wind speed in m/s (hover to see current wind gust speed)